Weather History for KMWK - March, 2014

Change the Weather History Date:

Wednesday, March 26, 2014

  Actual Average (KINT) Record (KINT)
Temperature  
Mean Temperature 36 °F -  
Max Temperature 44 °F 61 °F 79 °F (1989)
Min Temperature 28 °F 42 °F 17 °F (1972)
Degree Days  
Heating Degree Days 29    
Moisture  
Dew Point 10 °F    
Average Humidity 37    
Maximum Humidity 58    
Minimum Humidity 20    
Precipitation  
Precipitation 0.00 in - - ()
Sea Level Pressure  
Sea Level Pressure 30.15 in    
Wind  
Wind Speed 10 mph (WNW)    
Max Wind Speed 20 mph    
Max Gust Speed 28 mph    
Visibility 10 miles    
Events      
Averages and records for this station are not official NWS values.
T = Trace of Precipitation, MM = Missing Value Source: NWS Daily Summary

Daily Weather History Graph

Daily Weather History Graph

Search for Another Location

Airport or City:

Trip Planner

Search our weather history database for the weather conditions in past years. The results will help you decide how hot, cold, wet, or windy it might be!

Date:

Astronomy

Mar. 26, 2014 Rise Set
Actual Time 7:17 AM EDT 7:39 PM EDT
Civil Twilight 6:51 AM EDT 8:05 PM EDT
Nautical Twilight 6:20 AM EDT 8:35 PM EDT
Astronomical Twilight 5:50 AM EDT 9:06 PM EDT
Moon 4:17 AM EDT (3/26) 3:22 PM EDT (3/26)
Length of Visible Light 13h 13m
Length of Day
12h 22m
Waning Crescent, 22% of the Moon is Illuminated
Mar 26
Waning Crescent
Mar 30
New
Apr 7
First Quarter
Apr 15
Full
Apr 22
Last Quarter

Hourly Weather History & Observations

Time (EDT) Temp. Windchill Dew Point Humidity Pressure Visibility Wind Dir Wind Speed Gust Speed Precip Events Conditions
12:15 AM 32.9 °F 25.9 °F 17.6 °F 53% 29.98 in 10.0 mi WNW 8.1 mph 18.4 mph N/A   Clear
12:35 AM 32.2 °F 27.7 °F 18.0 °F 56% 29.99 in 10.0 mi WNW 4.6 mph - N/A   Clear
12:55 AM 32.0 °F 22.5 °F 18.3 °F 57% 30.00 in 10.0 mi WNW 12.7 mph 17.3 mph N/A   Scattered Clouds
1:15 AM 32.0 °F 23.0 °F 18.3 °F 57% 30.00 in 10.0 mi WNW 11.5 mph 23.0 mph N/A   Clear
1:35 AM 31.5 °F 21.8 °F 17.1 °F 55% 30.00 in 10.0 mi NW 12.7 mph 20.7 mph N/A   Clear
1:55 AM 31.1 °F 20.9 °F 16.3 °F 54% 30.01 in 10.0 mi WNW 13.8 mph 24.2 mph N/A   Clear
2:15 AM 30.9 °F 21.7 °F 16.7 °F 56% 30.02 in 10.0 mi WNW 11.5 mph 18.4 mph N/A   Clear
2:35 AM 30.0 °F 20.5 °F 16.9 °F 58% 30.02 in 10.0 mi WNW 11.5 mph 18.4 mph N/A   Clear
2:55 AM 30.0 °F 19.5 °F 15.8 °F 56% 30.03 in 10.0 mi WNW 13.8 mph 20.7 mph N/A   Clear
3:15 AM 29.8 °F 17.3 °F 14.9 °F 54% 30.03 in 10.0 mi WNW 19.6 mph 27.6 mph N/A   Clear
3:35 AM 29.1 °F 18.9 °F 15.4 °F 57% 30.03 in 10.0 mi NW 12.7 mph 26.5 mph N/A   Clear
3:55 AM 28.9 °F 18.2 °F 14.9 °F 56% 30.03 in 10.0 mi NW 13.8 mph 19.6 mph N/A   Clear
4:15 AM 28.8 °F 19.5 °F 15.1 °F 57% 30.03 in 10.0 mi NW 10.4 mph 17.3 mph N/A   Clear
4:35 AM 28.8 °F 20.2 °F 12.9 °F 52% 30.04 in 10.0 mi NW 9.2 mph 16.1 mph N/A   Clear
4:55 AM 29.7 °F 20.7 °F 10.2 °F 44% 30.04 in 10.0 mi WNW 10.4 mph 21.9 mph N/A   Scattered Clouds
5:15 AM 29.7 °F 20.1 °F 9.5 °F 43% 30.05 in 10.0 mi NW 11.5 mph 16.1 mph N/A   Mostly Cloudy
5:35 AM 29.7 °F 23.7 °F 9.1 °F 42% 30.05 in 10.0 mi WNW 5.8 mph - N/A   Mostly Cloudy
5:55 AM 29.7 °F 20.7 °F 7.7 °F 40% 30.06 in 10.0 mi NNW 10.4 mph 21.9 mph N/A   Mostly Cloudy
6:15 AM 28.8 °F 19.0 °F 8.1 °F 42% 30.08 in 10.0 mi WNW 11.5 mph 23.0 mph N/A   Mostly Cloudy
6:35 AM 28.9 °F 21.1 °F 8.6 °F 42% 30.08 in 10.0 mi West 8.1 mph 16.1 mph N/A   Mostly Cloudy
6:55 AM 28.8 °F 20.2 °F 10.2 °F 46% 30.10 in 10.0 mi WNW 9.2 mph - N/A   Overcast
7:15 AM 28.4 °F 21.2 °F 9.7 °F 46% 30.10 in 10.0 mi WNW 6.9 mph - N/A   Mostly Cloudy
7:35 AM 28.4 °F 19.1 °F 8.2 °F 43% 30.11 in 10.0 mi NW 10.4 mph 16.1 mph N/A   Scattered Clouds
7:55 AM 28.4 °F 17.5 °F 8.4 °F 43% 30.13 in 10.0 mi NW 13.8 mph 19.6 mph N/A   Clear
8:15 AM 28.9 °F 18.6 °F 8.6 °F 42% 30.14 in 10.0 mi NW 12.7 mph 19.6 mph N/A   Clear
8:35 AM 29.7 °F 17.8 °F 9.1 °F 42% 30.15 in 10.0 mi WNW 17.3 mph 23.0 mph N/A   Clear
8:55 AM 29.8 °F 20.9 °F 8.4 °F 41% 30.16 in 10.0 mi NW 10.4 mph 16.1 mph N/A   Clear
9:15 AM 30.2 °F 18.9 °F 7.2 °F 38% 30.17 in 10.0 mi NW 16.1 mph 21.9 mph N/A   Clear
9:35 AM 31.1 °F 21.4 °F 6.4 °F 35% 30.18 in 10.0 mi WNW 12.7 mph 21.9 mph N/A   Clear
9:55 AM 32.0 °F 22.5 °F 8.1 °F 37% 30.18 in 10.0 mi WNW 12.7 mph 24.2 mph N/A   Clear
10:15 AM 32.4 °F 22.5 °F 7.9 °F 36% 30.19 in 10.0 mi WNW 13.8 mph 20.7 mph N/A   Clear
10:35 AM 32.5 °F 21.9 °F 7.5 °F 35% 30.19 in 10.0 mi WNW 16.1 mph 21.9 mph N/A   Clear
10:55 AM 33.1 °F 23.9 °F 7.5 °F 34% 30.19 in 10.0 mi NW 12.7 mph 23.0 mph N/A   Clear
11:15 AM 34.7 °F 26.4 °F 9.1 °F 35% 30.20 in 10.0 mi WNW 11.5 mph 18.4 mph N/A   Clear
11:35 AM 35.1 °F 27.4 °F 7.9 °F 32% 30.20 in 10.0 mi WNW 10.4 mph 23.0 mph N/A   Clear
11:55 AM 35.6 °F 28.6 °F 7.5 °F 31% 30.20 in 10.0 mi WNW 9.2 mph 16.1 mph N/A   Clear
12:15 PM 37.0 °F 28.5 °F 7.2 °F 29% 30.21 in 10.0 mi NW 13.8 mph 19.6 mph N/A   Clear
12:35 PM 37.4 °F 28.9 °F 8.8 °F 31% 30.20 in 10.0 mi West 13.8 mph 20.7 mph N/A   Clear
12:55 PM 39.2 °F 32.0 °F 9.0 °F 29% 30.20 in 10.0 mi WNW 11.5 mph 16.1 mph N/A   Clear
1:15 PM 38.7 °F 30.9 °F 7.5 °F 28% 30.20 in 10.0 mi West 12.7 mph 19.6 mph N/A   Clear
1:35 PM 39.7 °F 33.2 °F 7.0 °F 26% 30.20 in 10.0 mi NW 10.4 mph 19.6 mph N/A   Clear
1:55 PM 40.8 °F 34.5 °F 7.7 °F 26% 30.19 in 10.0 mi WNW 10.4 mph - N/A   Clear
2:15 PM 40.1 °F 33.2 °F 7.3 °F 26% 30.18 in 10.0 mi West 11.5 mph 18.4 mph N/A   Clear
2:35 PM 41.5 °F 37.1 °F 7.2 °F 24% 30.19 in 10.0 mi West 6.9 mph 16.1 mph N/A   Clear
2:55 PM 41.7 °F 36.7 °F 6.4 °F 23% 30.19 in 10.0 mi West 8.1 mph 17.3 mph N/A   Clear
3:15 PM 42.8 °F 39.3 °F 7.5 °F 24% 30.20 in 10.0 mi West 5.8 mph 9.2 mph N/A   Clear
3:35 PM 43.0 °F 38.2 °F 8.1 °F 24% 30.19 in 10.0 mi WNW 8.1 mph 16.1 mph N/A   Clear
3:55 PM 43.0 °F 36.8 °F 5.9 °F 22% 30.20 in 10.0 mi NW 11.5 mph - N/A   Clear
4:15 PM 43.5 °F 37.9 °F 7.2 °F 23% 30.20 in 10.0 mi NW 10.4 mph 17.3 mph N/A   Clear
4:35 PM 44.1 °F 39.0 °F 7.2 °F 22% 30.19 in 10.0 mi NW 9.2 mph 16.1 mph N/A   Clear
4:55 PM 44.2 °F 41.0 °F 6.1 °F 21% 30.19 in 10.0 mi WNW 5.8 mph - N/A   Clear
5:15 PM 43.3 °F 38.1 °F 5.2 °F 21% 30.19 in 10.0 mi WNW 9.2 mph 17.3 mph N/A   Clear
5:35 PM 44.2 °F 41.0 °F 5.2 °F 20% 30.19 in 10.0 mi West 5.8 mph - N/A   Clear
5:55 PM 43.7 °F 39.1 °F 5.0 °F 20% 30.20 in 10.0 mi NNW 8.1 mph - N/A   Clear
6:15 PM 43.3 °F 38.6 °F 4.6 °F 20% 30.21 in 10.0 mi NW 8.1 mph - N/A   Clear
6:35 PM 43.0 °F 38.2 °F 4.8 °F 21% 30.21 in 10.0 mi NW 8.1 mph - N/A   Clear
6:55 PM 42.8 °F 40.1 °F 6.6 °F 23% 30.21 in 10.0 mi WNW 4.6 mph - N/A   Clear
7:15 PM 41.5 °F 38.6 °F 5.9 °F 23% 30.21 in 10.0 mi West 4.6 mph - N/A   Clear
7:35 PM 40.3 °F 38.2 °F 6.8 °F 25% 30.22 in 10.0 mi WNW 3.5 mph - N/A   Clear
7:55 PM 39.6 °F - 6.8 °F 26% 30.21 in 10.0 mi Calm Calm - N/A   Clear
8:15 PM 39.2 °F - 7.7 °F 27% 30.22 in 10.0 mi Calm Calm - N/A   Clear
8:35 PM 37.9 °F 34.4 °F 8.4 °F 30% 30.22 in 10.0 mi North 4.6 mph - N/A   Clear
8:55 PM 37.6 °F - 9.3 °F 31% 30.23 in 10.0 mi Calm Calm - N/A   Clear
9:15 PM 37.6 °F - 8.2 °F 30% 30.24 in 10.0 mi Calm Calm - N/A   Clear
9:35 PM 36.3 °F 33.7 °F 9.3 °F 33% 30.25 in 10.0 mi North 3.5 mph - N/A   Clear
9:55 PM 34.9 °F 32.0 °F 10.8 °F 37% 30.25 in 10.0 mi North 3.5 mph - N/A   Clear
10:15 PM 36.5 °F - 9.5 °F 33% 30.26 in 10.0 mi Calm Calm - N/A   Clear
10:35 PM 36.1 °F 33.5 °F 10.0 °F 34% 30.27 in 10.0 mi NNW 3.5 mph - N/A   Clear
10:55 PM 34.7 °F - 12.6 °F 40% 30.27 in 10.0 mi Calm Calm - N/A   Clear
11:15 PM 33.8 °F - 14.4 °F 45% 30.27 in 10.0 mi Calm Calm - N/A   Clear
11:35 PM 31.1 °F - 16.2 °F 54% 30.27 in 10.0 mi Calm Calm - N/A   Clear
11:55 PM 31.3 °F - 16.9 °F 55% 30.28 in 10.0 mi Calm Calm - N/A   Clear